Year,Month,Day,Hour,Minute,Value (Times are PST for temperature in C)
2016,08,03,00,00,16.30
2016,08,03,00,01,16.30
2016,08,03,00,02,16.30
2016,08,03,00,03,16.30
2016,08,03,00,04,16.30
2016,08,03,00,05,16.30
2016,08,03,00,06,16.30
2016,08,03,00,07,16.30
2016,08,03,00,08,16.30
2016,08,03,00,09,16.30
2016,08,03,00,10,16.30
2016,08,03,00,11,16.30
2016,08,03,00,12,16.30
2016,08,03,00,13,16.30
2016,08,03,00,14,16.30
2016,08,03,00,15,16.30
2016,08,03,00,16,16.30
2016,08,03,00,17,16.30
2016,08,03,00,18,16.30
2016,08,03,00,19,16.30
2016,08,03,00,20,16.30
2016,08,03,00,21,16.30
2016,08,03,00,22,16.30
2016,08,03,00,23,16.20
2016,08,03,00,24,16.20
2016,08,03,00,25,16.20
2016,08,03,00,26,16.20
2016,08,03,00,28,16.20
2016,08,03,00,29,16.20
2016,08,03,00,31,16.20
2016,08,03,00,32,16.20
2016,08,03,00,33,16.20
2016,08,03,00,34,16.20
2016,08,03,00,36,16.20
2016,08,03,00,37,16.20
2016,08,03,00,38,16.20
2016,08,03,00,39,16.20
2016,08,03,00,41,16.20
2016,08,03,00,42,16.20
2016,08,03,00,43,16.20
2016,08,03,00,44,16.20
2016,08,03,00,46,16.20
2016,08,03,00,47,16.20
2016,08,03,00,48,16.20
2016,08,03,00,49,16.20
2016,08,03,00,51,16.20
2016,08,03,00,52,16.20
2016,08,03,00,53,16.20
2016,08,03,00,54,16.20
2016,08,03,00,56,16.20
2016,08,03,00,57,16.10
2016,08,03,00,58,16.10
2016,08,03,00,59,16.10
2016,08,03,01,01,16.10
2016,08,03,01,02,16.10
2016,08,03,01,03,16.10
2016,08,03,01,04,16.10
2016,08,03,01,06,16.10
2016,08,03,01,07,16.10
2016,08,03,01,08,16.10
2016,08,03,01,09,16.10
2016,08,03,01,11,16.10
2016,08,03,01,12,16.10
2016,08,03,01,13,16.10
2016,08,03,01,14,16.10
2016,08,03,01,16,16.10
2016,08,03,01,17,16.10
2016,08,03,01,18,16.10
2016,08,03,01,19,16.10
2016,08,03,01,21,16.10
2016,08,03,01,22,16.10
2016,08,03,01,23,16.10
2016,08,03,01,24,16.10
2016,08,03,01,26,16.10
2016,08,03,01,27,16.10
2016,08,03,01,28,16.10
2016,08,03,01,29,16.10
2016,08,03,01,31,16.10
2016,08,03,01,32,16.10
2016,08,03,01,33,16.10
2016,08,03,01,34,16.10
2016,08,03,01,36,16.10
2016,08,03,01,37,16.10
2016,08,03,01,38,16.10
2016,08,03,01,39,16.10
2016,08,03,01,40,16.10
2016,08,03,01,41,16.10
2016,08,03,01,42,16.10
2016,08,03,01,43,16.10
2016,08,03,01,44,16.10
2016,08,03,01,45,16.10
2016,08,03,01,46,16.10
2016,08,03,01,47,16.10
2016,08,03,01,48,15.90
2016,08,03,01,49,15.90
2016,08,03,01,50,15.90
2016,08,03,01,51,15.90
2016,08,03,01,52,15.90
2016,08,03,01,53,15.90
2016,08,03,01,54,15.90
2016,08,03,01,55,15.90
2016,08,03,01,56,15.90
2016,08,03,01,57,15.90
2016,08,03,01,58,15.90
2016,08,03,01,59,15.90
2016,08,03,02,00,15.90
2016,08,03,02,01,15.90
2016,08,03,02,02,15.90
2016,08,03,02,03,15.90
2016,08,03,02,04,15.90
2016,08,03,02,05,15.90
2016,08,03,02,06,15.90
2016,08,03,02,07,15.90
2016,08,03,02,08,15.90
2016,08,03,02,09,15.90
2016,08,03,02,10,15.90
2016,08,03,02,11,15.90
2016,08,03,02,12,15.90
2016,08,03,02,13,15.90
2016,08,03,02,14,15.90
2016,08,03,02,15,15.90
2016,08,03,02,16,15.90
2016,08,03,02,17,15.90
2016,08,03,02,18,15.90
2016,08,03,02,19,15.90
2016,08,03,02,20,15.90
2016,08,03,02,21,15.90
2016,08,03,02,22,15.90
2016,08,03,02,23,15.90
2016,08,03,02,24,15.90
2016,08,03,02,25,15.90
2016,08,03,02,26,15.90
2016,08,03,02,27,15.90
2016,08,03,02,28,15.90
2016,08,03,02,29,15.90
2016,08,03,02,30,15.90
2016,08,03,02,31,15.90
2016,08,03,02,32,15.90
2016,08,03,02,33,15.90
2016,08,03,02,34,15.80
2016,08,03,02,35,15.80
2016,08,03,02,36,15.80
2016,08,03,02,37,15.80
2016,08,03,02,38,15.80
2016,08,03,02,39,15.80
2016,08,03,02,40,15.80
2016,08,03,02,41,15.80
2016,08,03,02,42,15.80
2016,08,03,02,43,15.80
2016,08,03,02,44,15.80
2016,08,03,02,45,15.80
2016,08,03,02,46,15.80
2016,08,03,02,47,15.80
2016,08,03,02,48,15.80
2016,08,03,02,49,15.80
2016,08,03,02,50,15.80
2016,08,03,02,51,15.80
2016,08,03,02,52,15.80
2016,08,03,02,53,15.80
2016,08,03,02,54,15.80
2016,08,03,02,55,15.80
2016,08,03,02,56,15.80
2016,08,03,02,57,15.80
2016,08,03,02,58,15.80
2016,08,03,02,59,15.80
2016,08,03,03,00,15.80
2016,08,03,03,01,15.80
2016,08,03,03,02,15.80
2016,08,03,03,03,15.80
2016,08,03,03,04,15.80
2016,08,03,03,05,15.80
2016,08,03,03,06,15.80
2016,08,03,03,08,15.70
2016,08,03,03,09,15.70
2016,08,03,03,11,15.70
2016,08,03,03,12,15.70
2016,08,03,03,13,15.70
2016,08,03,03,14,15.70
2016,08,03,03,16,15.70
2016,08,03,03,17,15.70
2016,08,03,03,18,15.70
2016,08,03,03,19,15.70
2016,08,03,03,21,15.70
2016,08,03,03,22,15.70
2016,08,03,03,23,15.70
2016,08,03,03,24,15.60
2016,08,03,03,26,15.60
2016,08,03,03,27,15.60
2016,08,03,03,28,15.60
2016,08,03,03,29,15.60
2016,08,03,03,31,15.60
2016,08,03,03,32,15.60
2016,08,03,03,33,15.60
2016,08,03,03,34,15.60
2016,08,03,03,36,15.60
2016,08,03,03,37,15.50
2016,08,03,03,38,15.50
2016,08,03,03,39,15.50
2016,08,03,03,41,15.50
2016,08,03,03,42,15.50
2016,08,03,03,43,15.50
2016,08,03,03,44,15.50
2016,08,03,03,46,15.50
2016,08,03,03,47,15.50
2016,08,03,03,48,15.50
2016,08,03,03,49,15.50
2016,08,03,03,51,15.50
2016,08,03,03,52,15.50
2016,08,03,03,53,15.50
2016,08,03,03,54,15.50
2016,08,03,03,56,15.40
2016,08,03,03,57,15.40
2016,08,03,03,58,15.40
2016,08,03,03,59,15.40
2016,08,03,04,01,15.40
2016,08,03,04,02,15.40
2016,08,03,04,03,15.40
2016,08,03,04,04,15.40
2016,08,03,04,06,15.40
2016,08,03,04,07,15.40
2016,08,03,04,08,15.40
2016,08,03,04,09,15.40
2016,08,03,04,11,15.30
2016,08,03,04,12,15.30
2016,08,03,04,13,15.30
2016,08,03,04,14,15.30
2016,08,03,04,16,15.30
2016,08,03,04,17,15.30
2016,08,03,04,18,15.30
2016,08,03,04,19,15.30
2016,08,03,04,20,15.30
2016,08,03,04,21,15.30
2016,08,03,04,22,15.30
2016,08,03,04,23,15.30
2016,08,03,04,24,15.30
2016,08,03,05,21,14.60
2016,08,03,05,22,14.60
2016,08,03,05,23,14.60
2016,08,03,05,24,14.60
2016,08,03,05,26,14.60
2016,08,03,05,27,14.50
2016,08,03,05,28,14.50
2016,08,03,05,29,14.50
2016,08,03,06,21,13.70
2016,08,03,06,22,13.70
2016,08,03,06,23,13.70
2016,08,03,06,24,13.70
2016,08,03,06,26,13.70
2016,08,03,06,27,13.70
2016,08,03,06,28,13.70
2016,08,03,06,29,13.60
2016,08,03,06,31,13.60
2016,08,03,06,32,13.60
2016,08,03,06,33,13.60
2016,08,03,06,34,13.60
2016,08,03,06,36,13.60
2016,08,03,06,37,13.60
2016,08,03,06,38,13.60
2016,08,03,06,39,13.50
2016,08,03,06,41,13.50
2016,08,03,06,42,13.40
2016,08,03,06,43,13.40
2016,08,03,06,44,13.30
2016,08,03,06,46,13.30
2016,08,03,06,47,13.30
2016,08,03,06,48,13.30
2016,08,03,06,49,13.30
2016,08,03,06,51,13.30
2016,08,03,06,52,13.30
2016,08,03,06,53,13.30
2016,08,03,06,54,13.30
2016,08,03,06,56,13.30
2016,08,03,06,57,13.30
2016,08,03,06,58,13.30
2016,08,03,06,59,13.30
2016,08,03,07,01,13.30
2016,08,03,07,02,13.30
2016,08,03,07,03,13.30
2016,08,03,07,04,13.30
2016,08,03,07,06,13.30
2016,08,03,07,07,13.30
2016,08,03,07,08,13.30
2016,08,03,07,09,13.30
2016,08,03,07,11,13.40
2016,08,03,07,12,13.40
2016,08,03,07,13,13.40
2016,08,03,07,14,13.40
2016,08,03,07,16,13.50
2016,08,03,07,17,13.50
2016,08,03,07,18,13.50
2016,08,03,07,19,13.50
2016,08,03,07,21,13.50
2016,08,03,07,22,13.60
2016,08,03,07,23,13.60
2016,08,03,07,24,13.60
2016,08,03,07,25,13.60
2016,08,03,07,26,13.60
2016,08,03,07,27,13.70
2016,08,03,07,28,13.70
2016,08,03,07,29,13.70
2016,08,03,07,30,13.70
2016,08,03,07,31,13.70
2016,08,03,07,32,13.70
2016,08,03,07,33,13.70
2016,08,03,07,34,13.80
2016,08,03,07,35,13.80
2016,08,03,07,36,13.80
2016,08,03,07,37,13.80
2016,08,03,07,38,13.90
2016,08,03,07,39,13.90
2016,08,03,07,40,13.90
2016,08,03,08,21,14.20
2016,08,03,08,22,14.20
2016,08,03,08,23,14.20
2016,08,03,08,24,14.20
2016,08,03,08,26,14.20
2016,08,03,08,27,14.20
2016,08,03,08,28,14.20
2016,08,03,08,29,14.20
2016,08,03,08,31,14.30
2016,08,03,08,32,14.40
2016,08,03,08,33,14.50
2016,08,03,08,34,14.50
2016,08,03,08,36,14.70
2016,08,03,08,37,14.80
2016,08,03,08,38,14.80
2016,08,03,08,39,14.80
2016,08,03,08,41,14.90
2016,08,03,08,42,15.00
2016,08,03,08,43,15.00
2016,08,03,08,44,15.10
2016,08,03,08,46,15.10
2016,08,03,08,47,15.20
2016,08,03,08,48,15.20
2016,08,03,08,49,15.20
2016,08,03,08,51,15.20
2016,08,03,08,52,15.20
2016,08,03,08,53,15.20
2016,08,03,08,54,15.20
2016,08,03,08,56,15.10
2016,08,03,08,57,15.10
2016,08,03,08,58,15.00
2016,08,03,08,59,15.00
2016,08,03,09,01,15.00
2016,08,03,09,02,14.90
2016,08,03,09,03,14.80
2016,08,03,09,04,14.80
2016,08,03,09,06,14.80
2016,08,03,09,07,14.70
2016,08,03,09,08,14.70
2016,08,03,09,09,14.70
2016,08,03,09,11,14.60
2016,08,03,09,12,14.60
2016,08,03,09,13,14.60
2016,08,03,09,14,14.70
2016,08,03,09,16,14.70
2016,08,03,09,17,14.70
2016,08,03,09,18,14.70
2016,08,03,09,19,14.70
2016,08,03,09,21,14.80
2016,08,03,09,22,14.80
2016,08,03,09,23,14.80
2016,08,03,09,24,14.80
2016,08,03,09,25,14.80
2016,08,03,09,26,14.80
2016,08,03,09,27,14.80
2016,08,03,09,28,14.80
2016,08,03,09,29,14.80
2016,08,03,09,30,14.80
2016,08,03,09,31,14.70
2016,08,03,09,32,14.70
2016,08,03,09,33,14.70
2016,08,03,09,34,14.80
2016,08,03,09,35,14.80
2016,08,03,09,36,14.80
2016,08,03,09,37,14.80
2016,08,03,09,38,14.90
2016,08,03,09,39,15.00
2016,08,03,09,40,15.00
2016,08,03,09,41,15.10
2016,08,03,09,42,15.10
2016,08,03,09,43,15.10
2016,08,03,09,44,15.10
2016,08,03,09,45,15.10
2016,08,03,09,46,15.10
2016,08,03,09,47,15.10
2016,08,03,09,48,15.10
2016,08,03,09,49,15.10
2016,08,03,09,50,15.20
2016,08,03,09,51,15.20
2016,08,03,09,52,15.30
2016,08,03,09,53,15.30
2016,08,03,09,54,15.40
2016,08,03,09,55,15.50
2016,08,03,09,56,15.60
2016,08,03,09,57,15.70
2016,08,03,09,58,15.70
2016,08,03,09,59,15.60
2016,08,03,10,00,15.70
2016,08,03,10,01,15.70
2016,08,03,10,02,15.70
2016,08,03,10,03,15.80
2016,08,03,10,04,15.80
2016,08,03,10,05,15.80
2016,08,03,10,06,15.80
2016,08,03,10,07,15.90
2016,08,03,10,08,15.90
2016,08,03,10,09,15.90
2016,08,03,10,10,16.10
2016,08,03,10,11,16.10
2016,08,03,10,12,16.10
2016,08,03,10,13,16.10
2016,08,03,10,14,16.10
2016,08,03,10,15,16.10
2016,08,03,10,16,16.10
2016,08,03,10,17,16.10
2016,08,03,10,18,16.10
2016,08,03,10,19,16.10
2016,08,03,10,20,16.10
2016,08,03,10,21,16.20
2016,08,03,10,22,16.20
2016,08,03,10,23,16.20
2016,08,03,10,24,16.20
2016,08,03,10,25,16.30
2016,08,03,10,26,16.30
2016,08,03,10,27,16.30
2016,08,03,10,28,16.40
2016,08,03,10,29,16.40
2016,08,03,10,30,16.40
2016,08,03,10,31,16.60
2016,08,03,10,32,16.60
2016,08,03,10,33,16.70
2016,08,03,10,34,16.70
2016,08,03,10,35,16.70
2016,08,03,10,36,16.70
2016,08,03,10,37,16.80
2016,08,03,10,38,16.80
2016,08,03,10,39,16.80
2016,08,03,10,40,16.80
2016,08,03,10,41,16.80
2016,08,03,10,42,16.80
2016,08,03,10,43,16.80
2016,08,03,10,44,16.80
2016,08,03,10,45,16.80
2016,08,03,10,46,16.80
2016,08,03,10,47,16.80
2016,08,03,10,48,16.80
2016,08,03,10,49,16.80
2016,08,03,10,50,16.80
2016,08,03,10,51,16.70
2016,08,03,10,52,16.70
2016,08,03,10,53,16.70
2016,08,03,10,54,16.70
2016,08,03,10,55,16.70
2016,08,03,10,57,16.70
2016,08,03,10,58,16.70
2016,08,03,10,59,16.70
2016,08,03,11,00,16.70
2016,08,03,11,02,16.70
2016,08,03,11,03,16.80
2016,08,03,11,04,16.80
2016,08,03,11,06,16.70
2016,08,03,11,07,16.70
2016,08,03,11,08,16.70
2016,08,03,11,09,16.70
2016,08,03,11,11,16.80
2016,08,03,11,12,16.80
2016,08,03,11,13,16.90
2016,08,03,11,14,16.90
2016,08,03,11,16,16.90
2016,08,03,11,17,16.90
2016,08,03,11,18,17.00
2016,08,03,11,19,17.00
2016,08,03,11,21,17.10
2016,08,03,11,22,17.20
2016,08,03,11,23,17.30
2016,08,03,11,24,17.30
2016,08,03,11,26,17.30
2016,08,03,11,27,17.30
2016,08,03,11,28,17.30
2016,08,03,11,29,17.30
2016,08,03,11,31,17.40
2016,08,03,11,32,17.40
2016,08,03,11,33,17.30
2016,08,03,11,34,17.30
2016,08,03,11,36,17.30
2016,08,03,11,37,17.30
2016,08,03,11,38,17.30
2016,08,03,11,39,17.20
2016,08,03,11,41,17.20
2016,08,03,11,42,17.30
2016,08,03,11,43,17.30
2016,08,03,11,44,17.30
2016,08,03,11,46,17.60
2016,08,03,11,47,17.70
2016,08,03,11,48,17.80
2016,08,03,11,49,17.90
2016,08,03,11,51,17.90
2016,08,03,11,52,17.90
2016,08,03,11,53,18.10
2016,08,03,11,54,18.10
2016,08,03,11,56,18.10
2016,08,03,11,57,18.10
2016,08,03,11,58,18.10
2016,08,03,11,59,17.90
2016,08,03,12,01,17.90
2016,08,03,12,02,17.90
2016,08,03,12,03,17.90
2016,08,03,12,04,17.90
2016,08,03,12,06,17.90
2016,08,03,12,07,17.80
2016,08,03,12,08,17.70
2016,08,03,12,09,17.70
2016,08,03,12,11,17.50
2016,08,03,12,12,17.30
2016,08,03,12,13,17.30
2016,08,03,12,14,17.30
2016,08,03,12,15,17.30
2016,08,03,12,16,17.30
2016,08,03,12,17,17.40
2016,08,03,12,18,17.50
2016,08,03,12,19,17.60
2016,08,03,12,20,17.70
2016,08,03,12,21,17.90
2016,08,03,12,22,18.10
2016,08,03,12,23,18.20
2016,08,03,12,24,18.20
2016,08,03,12,25,18.10
2016,08,03,12,26,18.10
2016,08,03,12,27,18.10
2016,08,03,12,28,18.20
2016,08,03,12,29,18.20
2016,08,03,12,30,18.20
2016,08,03,12,31,18.20
2016,08,03,12,32,18.20
2016,08,03,12,33,18.30
2016,08,03,12,34,18.40
2016,08,03,12,35,18.50
2016,08,03,12,36,18.50
2016,08,03,12,37,18.50
2016,08,03,12,38,18.50
2016,08,03,12,39,18.40
2016,08,03,12,40,18.40
2016,08,03,12,41,18.40
2016,08,03,12,42,18.30
2016,08,03,12,43,18.20
2016,08,03,12,44,18.10
2016,08,03,12,45,18.10
2016,08,03,12,46,17.90
2016,08,03,12,47,17.90
2016,08,03,12,48,17.90
2016,08,03,12,49,17.90
2016,08,03,12,50,17.90
2016,08,03,12,51,17.90
2016,08,03,12,52,17.90
2016,08,03,12,53,17.90
2016,08,03,12,54,17.80
2016,08,03,12,55,17.90
2016,08,03,12,56,17.90
2016,08,03,12,57,17.90
2016,08,03,12,58,17.90
2016,08,03,12,59,17.90
2016,08,03,13,00,17.90
2016,08,03,13,01,17.90
2016,08,03,13,02,17.90
2016,08,03,13,03,17.90
2016,08,03,13,04,17.80
2016,08,03,13,05,17.70
2016,08,03,13,06,17.70
2016,08,03,13,07,17.80
2016,08,03,13,08,17.90
2016,08,03,13,09,17.90
2016,08,03,13,10,17.90
2016,08,03,13,11,17.90
2016,08,03,13,12,17.90
2016,08,03,13,13,17.90
2016,08,03,13,14,17.90
2016,08,03,13,15,18.10
2016,08,03,13,16,18.10
2016,08,03,13,17,18.10
2016,08,03,13,18,18.10
2016,08,03,13,19,17.90
2016,08,03,13,20,17.90
2016,08,03,13,21,17.90
2016,08,03,13,22,18.10
2016,08,03,13,23,18.10
2016,08,03,13,24,18.10
2016,08,03,13,25,17.90
2016,08,03,13,26,17.90
2016,08,03,13,27,17.90
2016,08,03,13,28,17.90
2016,08,03,13,29,17.90
2016,08,03,13,30,17.90
2016,08,03,13,31,17.90
2016,08,03,13,32,17.90
2016,08,03,13,33,17.90
2016,08,03,13,34,17.90
2016,08,03,13,35,17.90
2016,08,03,13,36,17.90
2016,08,03,13,37,17.90
2016,08,03,13,38,17.90
2016,08,03,13,39,17.90
2016,08,03,13,40,17.90
2016,08,03,13,41,17.90
2016,08,03,13,42,17.90
2016,08,03,13,43,18.10
2016,08,03,13,44,18.20
2016,08,03,13,45,18.20
2016,08,03,13,46,18.20
2016,08,03,13,47,18.20
2016,08,03,13,49,18.20
2016,08,03,13,51,18.30
2016,08,03,13,52,18.30
2016,08,03,13,53,18.40
2016,08,03,13,54,18.50
2016,08,03,13,56,18.60
2016,08,03,13,57,18.70
2016,08,03,13,58,18.70
2016,08,03,13,59,18.70
2016,08,03,14,01,18.70
2016,08,03,14,02,18.80
2016,08,03,14,03,18.80
2016,08,03,14,04,18.90
2016,08,03,14,06,18.90
2016,08,03,14,07,18.90
2016,08,03,14,08,18.90
2016,08,03,14,09,18.90
2016,08,03,14,11,18.90
2016,08,03,14,12,18.90
2016,08,03,14,13,18.90
2016,08,03,14,14,18.90
2016,08,03,14,16,19.10
2016,08,03,14,17,19.10
2016,08,03,14,18,19.10
2016,08,03,14,19,19.10
2016,08,03,14,21,19.10
2016,08,03,14,22,19.10
2016,08,03,14,23,19.10
2016,08,03,14,24,19.10
2016,08,03,14,26,19.10
2016,08,03,14,27,19.10
2016,08,03,14,28,19.10
2016,08,03,14,29,19.10
2016,08,03,14,31,19.10
2016,08,03,14,32,19.20
2016,08,03,14,33,19.20
2016,08,03,14,34,19.20
2016,08,03,14,36,19.20
2016,08,03,14,37,19.30
2016,08,03,14,38,19.40
2016,08,03,14,39,19.40
2016,08,03,14,41,19.50
2016,08,03,14,42,19.60
2016,08,03,14,43,19.60
2016,08,03,14,44,19.70
2016,08,03,14,46,19.90
2016,08,03,14,47,19.90
2016,08,03,14,48,20.10
2016,08,03,14,49,20.10
2016,08,03,14,51,20.10
2016,08,03,14,52,20.10
2016,08,03,14,53,20.10
2016,08,03,14,54,20.10
2016,08,03,14,56,19.90
2016,08,03,14,57,19.80
2016,08,03,14,58,19.80
2016,08,03,14,59,19.80
2016,08,03,15,00,19.90
2016,08,03,15,01,19.90
2016,08,03,15,02,19.90
2016,08,03,15,03,19.90
2016,08,03,15,04,19.90
2016,08,03,15,06,20.10
2016,08,03,15,07,20.10
2016,08,03,15,08,20.10
2016,08,03,15,09,20.10
2016,08,03,15,10,20.10
2016,08,03,15,11,19.90
2016,08,03,15,12,19.90
2016,08,03,15,13,19.90
2016,08,03,15,14,19.90
2016,08,03,15,15,19.80
2016,08,03,15,16,19.70
2016,08,03,15,17,19.70
2016,08,03,15,18,19.60
2016,08,03,15,19,19.60
2016,08,03,15,20,19.60
2016,08,03,15,21,19.60
2016,08,03,15,22,19.60
2016,08,03,15,23,19.60
2016,08,03,15,24,19.60
2016,08,03,15,25,19.70
2016,08,03,15,26,19.70
2016,08,03,15,27,19.80
2016,08,03,15,28,19.80
2016,08,03,15,29,19.90
2016,08,03,15,30,19.90
2016,08,03,15,31,19.90
2016,08,03,15,32,19.90
2016,08,03,15,33,19.90
2016,08,03,15,34,19.90
2016,08,03,15,35,19.90
2016,08,03,15,36,19.90
2016,08,03,15,37,19.90
2016,08,03,15,38,19.90
2016,08,03,15,39,19.90
2016,08,03,15,40,19.90
2016,08,03,15,41,19.90
2016,08,03,15,42,19.90
2016,08,03,15,43,19.90
2016,08,03,15,44,20.10
2016,08,03,15,45,20.10
2016,08,03,15,46,20.10
2016,08,03,15,47,20.20
2016,08,03,15,48,20.20
2016,08,03,15,50,20.20
2016,08,03,15,51,20.20
2016,08,03,15,52,20.20
2016,08,03,15,53,20.20
2016,08,03,15,54,20.20
2016,08,03,15,55,20.10
2016,08,03,15,56,20.10
2016,08,03,15,57,20.10
2016,08,03,15,58,19.90
2016,08,03,15,59,19.90
2016,08,03,16,00,19.90
2016,08,03,16,01,19.90
2016,08,03,16,02,19.90
2016,08,03,16,03,19.90
2016,08,03,16,04,19.90
2016,08,03,16,05,19.90
2016,08,03,16,06,19.90
2016,08,03,16,07,19.90
2016,08,03,16,08,19.90
2016,08,03,16,09,19.80
2016,08,03,16,10,19.80
2016,08,03,16,11,19.80
2016,08,03,16,12,19.90
2016,08,03,16,13,19.90
2016,08,03,16,14,19.90
2016,08,03,16,15,19.90
2016,08,03,16,16,19.80
2016,08,03,16,17,19.80
2016,08,03,16,18,19.80
2016,08,03,16,19,19.80
2016,08,03,16,20,19.70
2016,08,03,16,21,19.70
2016,08,03,16,22,19.70
2016,08,03,16,23,19.70
2016,08,03,16,24,19.70
2016,08,03,16,25,19.70
2016,08,03,16,26,19.70
2016,08,03,16,27,19.70
2016,08,03,16,29,19.60
2016,08,03,16,31,19.70
2016,08,03,16,32,19.60
2016,08,03,16,33,19.60
2016,08,03,16,34,19.60
2016,08,03,16,36,19.70
2016,08,03,16,37,19.70
2016,08,03,16,38,19.80
2016,08,03,16,39,19.80
2016,08,03,16,41,19.80
2016,08,03,16,42,19.80
2016,08,03,16,43,19.90
2016,08,03,16,44,19.90
2016,08,03,16,46,19.90
2016,08,03,16,47,19.90
2016,08,03,16,48,19.90
2016,08,03,16,49,19.90
2016,08,03,16,51,19.90
2016,08,03,16,52,19.90
2016,08,03,16,53,19.80
2016,08,03,16,54,19.80
2016,08,03,16,56,19.60
2016,08,03,16,57,19.60
2016,08,03,16,58,19.50
2016,08,03,16,59,19.50
2016,08,03,17,01,19.20
2016,08,03,17,02,19.10
2016,08,03,17,03,19.10
2016,08,03,17,04,19.10
2016,08,03,17,06,19.10
2016,08,03,17,07,19.10
2016,08,03,17,08,18.90
2016,08,03,17,09,18.90
2016,08,03,17,11,18.80
2016,08,03,17,12,18.80
2016,08,03,17,13,18.70
2016,08,03,17,14,18.60
2016,08,03,17,16,18.40
2016,08,03,17,17,18.40
2016,08,03,17,18,18.30
2016,08,03,17,19,18.20
2016,08,03,17,21,18.20
2016,08,03,17,22,18.20
2016,08,03,17,23,18.10
2016,08,03,17,24,18.20
2016,08,03,17,26,18.20
2016,08,03,17,27,18.20
2016,08,03,17,28,18.20
2016,08,03,17,29,18.20
2016,08,03,17,31,18.20
2016,08,03,17,32,18.20
2016,08,03,17,33,18.20
2016,08,03,17,34,18.20
2016,08,03,17,36,18.20
2016,08,03,17,37,18.20
2016,08,03,17,38,18.20
2016,08,03,17,39,18.20
2016,08,03,17,41,18.20
2016,08,03,17,42,18.20
2016,08,03,17,43,18.20
2016,08,03,17,44,18.20
2016,08,03,17,45,18.20
2016,08,03,17,46,18.20
2016,08,03,17,47,18.20
2016,08,03,17,48,18.30
2016,08,03,17,49,18.30
2016,08,03,17,50,18.40
2016,08,03,17,51,18.50
2016,08,03,17,52,18.60
2016,08,03,17,53,18.70
2016,08,03,17,54,18.70
2016,08,03,17,55,18.80
2016,08,03,17,56,18.90
2016,08,03,17,57,19.10
2016,08,03,17,58,19.10
2016,08,03,17,59,19.20
2016,08,03,18,00,19.20
2016,08,03,18,01,19.30
2016,08,03,18,02,19.40
2016,08,03,18,03,19.40
2016,08,03,18,04,19.40
2016,08,03,18,05,19.40
2016,08,03,18,06,19.40
2016,08,03,18,07,19.50
2016,08,03,18,08,19.50
2016,08,03,18,09,19.50
2016,08,03,18,10,19.50
2016,08,03,18,11,19.50
2016,08,03,18,12,19.60
2016,08,03,18,13,19.60
2016,08,03,18,14,19.60
2016,08,03,18,15,19.60
2016,08,03,18,16,19.60
2016,08,03,18,17,19.70
2016,08,03,18,18,19.70
2016,08,03,18,19,19.80
2016,08,03,18,20,19.80
2016,08,03,18,21,19.90
2016,08,03,18,22,19.90
2016,08,03,18,23,19.90
2016,08,03,18,24,19.90
2016,08,03,18,25,19.90
2016,08,03,18,26,19.90
2016,08,03,18,27,19.90
2016,08,03,18,28,19.90
2016,08,03,18,29,19.90
2016,08,03,18,30,19.90
2016,08,03,18,31,19.90
2016,08,03,18,32,19.90
2016,08,03,18,33,19.80
2016,08,03,18,34,19.90
2016,08,03,18,35,19.90
2016,08,03,18,36,19.90
2016,08,03,18,37,19.90
2016,08,03,18,38,19.90
2016,08,03,18,39,19.90
2016,08,03,18,40,19.90
2016,08,03,18,41,19.90
2016,08,03,18,42,19.90
2016,08,03,18,43,20.10
2016,08,03,18,44,20.10
2016,08,03,18,45,19.90
2016,08,03,18,46,19.90
2016,08,03,18,47,19.90
2016,08,03,18,48,19.90
2016,08,03,18,49,19.80
2016,08,03,18,50,19.70
2016,08,03,18,51,19.70
2016,08,03,18,52,19.60
2016,08,03,18,53,19.50
2016,08,03,18,54,19.50
2016,08,03,18,56,19.40
2016,08,03,18,57,19.40
2016,08,03,18,58,19.40
2016,08,03,18,59,19.40
2016,08,03,19,00,19.30
2016,08,03,19,01,19.30
2016,08,03,19,02,19.30
2016,08,03,19,03,19.30
2016,08,03,19,04,19.30
2016,08,03,19,05,19.20
2016,08,03,19,06,19.20
2016,08,03,19,07,19.20
2016,08,03,19,08,19.20
2016,08,03,19,09,19.20
2016,08,03,19,10,19.20
2016,08,03,19,11,19.20
2016,08,03,19,12,19.20
2016,08,03,19,13,19.20
2016,08,03,19,14,19.20
2016,08,03,19,15,19.20
2016,08,03,19,17,19.20
2016,08,03,19,18,19.10
2016,08,03,19,19,19.10
2016,08,03,19,21,19.10
2016,08,03,19,22,19.10
2016,08,03,19,23,18.90
2016,08,03,19,24,18.90
2016,08,03,19,26,18.90
2016,08,03,19,27,18.90
2016,08,03,19,28,18.80
2016,08,03,19,29,18.80
2016,08,03,19,31,18.80
2016,08,03,19,32,18.80
2016,08,03,19,33,18.70
2016,08,03,19,34,18.70
2016,08,03,19,36,18.70
2016,08,03,19,37,18.70
2016,08,03,19,38,18.60
2016,08,03,19,39,18.60
2016,08,03,19,41,18.50
2016,08,03,19,42,18.40
2016,08,03,19,43,18.40
2016,08,03,19,44,18.30
2016,08,03,19,46,18.20
2016,08,03,19,47,18.20
2016,08,03,19,48,18.20
2016,08,03,19,49,18.20
2016,08,03,19,51,18.20
2016,08,03,19,52,18.20
2016,08,03,19,53,18.10
2016,08,03,19,54,18.10
2016,08,03,19,56,18.10
2016,08,03,19,57,18.10
2016,08,03,19,58,18.10
2016,08,03,19,59,17.90
2016,08,03,20,01,17.90
2016,08,03,20,02,17.90
2016,08,03,20,03,17.80
2016,08,03,20,04,17.70
2016,08,03,20,06,17.60
2016,08,03,20,07,17.60
2016,08,03,20,08,17.50
2016,08,03,20,09,17.50
2016,08,03,20,11,17.40
2016,08,03,20,12,17.40
2016,08,03,20,13,17.30
2016,08,03,20,14,17.30
2016,08,03,20,16,17.30
2016,08,03,20,17,17.30
2016,08,03,20,18,17.30
2016,08,03,20,19,17.30
2016,08,03,20,21,17.30
2016,08,03,20,22,17.20
2016,08,03,20,23,17.20
2016,08,03,20,24,17.20
2016,08,03,20,25,17.20
2016,08,03,20,26,17.20
2016,08,03,20,27,17.20
2016,08,03,20,28,17.20
2016,08,03,20,29,17.20
2016,08,03,20,31,17.20
2016,08,03,20,32,17.20
2016,08,03,20,33,17.10
2016,08,03,20,34,17.10
2016,08,03,20,36,17.10
2016,08,03,20,37,17.10
2016,08,03,20,38,17.10
2016,08,03,20,39,17.10
2016,08,03,20,40,17.10
2016,08,03,20,41,17.00
2016,08,03,20,42,17.00
2016,08,03,20,43,17.00
2016,08,03,20,44,17.00
2016,08,03,20,45,17.00
2016,08,03,20,46,17.00
2016,08,03,20,47,17.00
2016,08,03,20,48,17.00
2016,08,03,20,49,17.00
2016,08,03,20,50,17.00
2016,08,03,20,51,17.00
2016,08,03,20,52,17.00
2016,08,03,20,53,17.00
2016,08,03,20,54,17.00
2016,08,03,20,55,17.00
2016,08,03,20,56,16.90
2016,08,03,20,57,16.90
2016,08,03,20,58,16.90
2016,08,03,20,59,16.90
2016,08,03,21,00,16.90
2016,08,03,21,01,16.90
2016,08,03,21,02,16.90
2016,08,03,21,03,16.90
2016,08,03,21,04,16.90
2016,08,03,21,05,16.90
2016,08,03,21,06,16.90
2016,08,03,21,07,16.90
2016,08,03,21,08,16.90
2016,08,03,21,09,16.90
2016,08,03,21,10,16.80
2016,08,03,21,11,16.80
2016,08,03,21,12,16.80
2016,08,03,21,13,16.80
2016,08,03,21,14,16.80
2016,08,03,21,15,16.80
2016,08,03,21,16,16.80
2016,08,03,21,17,16.80
2016,08,03,21,18,16.70
2016,08,03,21,19,16.70
2016,08,03,21,20,16.70
2016,08,03,21,21,16.70
2016,08,03,21,22,16.70
2016,08,03,21,23,16.70
2016,08,03,21,24,16.70
2016,08,03,21,25,16.70
2016,08,03,21,26,16.70
2016,08,03,21,27,16.70
2016,08,03,21,28,16.70
2016,08,03,21,29,16.70
2016,08,03,21,30,16.60
2016,08,03,21,31,16.60
2016,08,03,21,32,16.60
2016,08,03,21,33,16.60
2016,08,03,21,34,16.60
2016,08,03,21,35,16.60
2016,08,03,21,36,16.40
2016,08,03,21,37,16.40
2016,08,03,21,38,16.40
2016,08,03,21,39,16.40
2016,08,03,21,40,16.40
2016,08,03,21,41,16.40
2016,08,03,21,42,16.40
2016,08,03,21,43,16.40
2016,08,03,21,44,16.40
2016,08,03,21,45,16.40
2016,08,03,21,46,16.30
2016,08,03,21,47,16.30